TimeCST,TemperatureF,Dew PointF,Humidity,Sea Level PressureIn,VisibilityMPH,Wind Direction,Wind SpeedMPH,Gust SpeedMPH,PrecipitationIn,Events,Conditions,WindDirDegrees,DateUTC
12:15 AM,31.5,30.2,95,29.76,2.0,NNW,13.8,-,N/A,Snow,Light Snow,330,2013-02-27 06:15:00
12:35 AM,31.1,30.2,96,29.76,1.5,NNW,12.7,-,N/A,Snow,Light Snow,330,2013-02-27 06:35:00
12:55 AM,31.1,30.2,96,29.76,1.5,NNW,12.7,-,N/A,Snow,Light Snow,330,2013-02-27 06:55:00
1:15 AM,31.1,30.0,96,29.76,1.8,NNW,12.7,-,N/A,Snow,Light Snow,330,2013-02-27 07:15:00
1:35 AM,30.9,29.8,96,29.76,1.8,NNW,11.5,-,N/A,Snow,Light Snow,330,2013-02-27 07:35:00
1:55 AM,30.9,29.8,96,29.76,2.5,NW,11.5,-,N/A,Snow,Light Snow,320,2013-02-27 07:55:00
2:15 AM,30.7,29.3,94,29.76,2.0,NW,10.4,-,N/A,Snow,Light Snow,320,2013-02-27 08:15:00
2:35 AM,30.6,29.3,95,29.75,1.8,NW,11.5,-,N/A,Snow,Light Snow,320,2013-02-27 08:35:00
2:55 AM,30.6,29.3,95,29.76,2.0,NW,10.4,-,N/A,Snow,Light Snow,320,2013-02-27 08:55:00
3:15 AM,30.2,29.1,96,29.76,1.8,NW,11.5,-,N/A,Snow,Light Snow,310,2013-02-27 09:15:00
3:35 AM,29.8,28.8,96,29.76,1.8,NW,11.5,-,N/A,Snow,Light Snow,310,2013-02-27 09:35:00
3:55 AM,29.7,28.4,95,29.76,2.0,NW,15.0,-,N/A,Snow,Light Snow,320,2013-02-27 09:55:00
4:15 AM,29.7,28.4,95,29.76,3.0,NW,13.8,-,N/A,Snow,Light Snow,320,2013-02-27 10:15:00
4:35 AM,29.3,27.9,94,29.76,1.8,NW,13.8,-,N/A,Snow,Light Snow,310,2013-02-27 10:35:00
4:55 AM,28.9,27.5,94,29.76,1.5,NW,15.0,-,N/A,Snow,Light Snow,320,2013-02-27 10:55:00
5:15 AM,28.8,27.5,95,29.76,1.5,NW,16.1,-,N/A,Snow,Light Snow,320,2013-02-27 11:15:00
5:35 AM,28.8,27.3,94,29.76,2.0,NNW,13.8,-,N/A,Snow,Light Snow,330,2013-02-27 11:35:00
5:55 AM,28.4,27.1,95,29.77,1.8,NNW,15.0,-,N/A,Snow,Light Snow,330,2013-02-27 11:55:00
6:15 AM,28.4,27.0,94,29.77,3.0,NW,15.0,-,N/A,Snow,Light Snow,320,2013-02-27 12:15:00
6:35 AM,28.4,27.0,94,29.77,3.0,NW,13.8,-,N/A,Snow,Light Snow,320,2013-02-27 12:35:00
6:55 AM,28.4,27.0,94,29.77,1.8,NW,12.7,-,N/A,Snow,Light Snow,320,2013-02-27 12:55:00
7:15 AM,28.4,27.0,94,29.77,0.8,NW,12.7,-,N/A,Snow,Light Snow,320,2013-02-27 13:15:00
7:35 AM,28.4,27.0,94,29.78,1.0,NW,12.7,-,N/A,Snow,Light Snow,320,2013-02-27 13:35:00
7:55 AM,28.2,26.4,93,29.79,1.2,NW,15.0,-,N/A,Snow,Light Snow,320,2013-02-27 13:55:00
8:15 AM,28.0,25.7,91,29.79,1.5,NW,13.8,-,N/A,Snow,Light Snow,320,2013-02-27 14:15:00
8:35 AM,28.0,25.7,91,29.80,1.8,NW,12.7,-,N/A,Snow,Light Snow,320,2013-02-27 14:35:00
9:15 AM,28.9,26.6,91,29.80,1.2,NW,15.0,-,N/A,Snow,Light Snow,320,2013-02-27 15:15:00
9:35 AM,29.3,27.0,91,29.80,2.5,NW,13.8,-,N/A,Snow,Light Snow,320,2013-02-27 15:35:00
9:55 AM,29.7,27.0,90,29.81,3.0,NW,12.7,17.3,N/A,Snow,Light Snow,320,2013-02-27 15:55:00
10:15 AM,29.7,27.0,90,29.81,4.0,NW,11.5,-,N/A,,Overcast,310,2013-02-27 16:15:00
10:35 AM,30.0,27.0,88,29.82,2.5,NW,13.8,-,N/A,Snow,Light Snow,310,2013-02-27 16:35:00
10:55 AM,30.2,27.0,88,29.82,1.8,NW,13.8,-,N/A,Snow,Light Snow,310,2013-02-27 16:55:00
11:15 AM,30.2,27.3,89,29.83,1.2,NW,15.0,-,N/A,Snow,Light Snow,320,2013-02-27 17:15:00
11:35 AM,30.2,27.3,89,29.82,1.0,NW,18.4,-,N/A,Snow,Light Snow,320,2013-02-27 17:35:00
11:55 AM,30.2,27.3,89,29.83,1.0,NW,16.1,-,N/A,Snow,Light Snow,320,2013-02-27 17:55:00
12:15 PM,30.2,27.5,90,29.83,1.0,NW,16.1,-,N/A,Snow,Light Snow,320,2013-02-27 18:15:00
12:35 PM,31.1,28.4,90,29.82,1.0,NW,15.0,-,N/A,Snow,Light Snow,310,2013-02-27 18:35:00
12:55 PM,31.3,28.4,89,29.82,1.0,NW,17.3,20.7,N/A,Snow,Light Snow,320,2013-02-27 18:55:00
1:15 PM,31.1,28.2,89,29.82,1.0,NW,18.4,-,N/A,Snow,Light Snow,320,2013-02-27 19:15:00
1:35 PM,31.1,28.2,89,29.82,1.2,NW,16.1,23.0,N/A,Snow,Light Snow,320,2013-02-27 19:35:00
1:55 PM,31.1,28.4,90,29.83,0.8,NW,16.1,-,N/A,Snow,Light Snow,320,2013-02-27 19:55:00
2:15 PM,31.3,28.4,89,29.83,1.0,NW,15.0,21.9,N/A,Snow,Light Snow,320,2013-02-27 20:15:00
2:35 PM,31.1,28.4,90,29.84,1.0,NW,15.0,20.7,N/A,Snow,Light Snow,310,2013-02-27 20:35:00
2:55 PM,31.1,28.4,90,29.85,1.0,NW,16.1,21.9,N/A,Snow,Light Snow,310,2013-02-27 20:55:00
3:15 PM,30.7,28.0,90,29.85,2.5,NW,15.0,-,N/A,Snow,Light Snow,320,2013-02-27 21:15:00
3:35 PM,30.9,28.2,90,29.85,1.2,NW,18.4,23.0,N/A,Snow,Light Snow,310,2013-02-27 21:35:00
3:55 PM,30.6,28.4,92,29.86,0.8,NW,17.3,24.2,N/A,Snow,Light Snow,320,2013-02-27 21:55:00
4:15 PM,30.2,27.9,91,29.86,1.5,NW,20.7,-,N/A,Snow,Light Snow,320,2013-02-27 22:15:00
4:35 PM,30.0,27.5,90,29.87,1.2,NW,18.4,26.5,N/A,Snow,Light Snow,320,2013-02-27 22:35:00
4:55 PM,29.8,27.5,91,29.88,1.2,NW,17.3,23.0,N/A,Snow,Light Snow,310,2013-02-27 22:55:00
5:15 PM,29.7,27.5,92,29.88,1.0,NW,17.3,23.0,N/A,Snow,Light Snow,310,2013-02-27 23:15:00
5:35 PM,29.3,27.5,93,29.89,1.5,NW,15.0,-,N/A,Snow,Light Snow,310,2013-02-27 23:35:00
5:55 PM,29.5,27.9,94,29.89,1.2,NW,13.8,19.6,N/A,Snow,Light Snow,310,2013-02-27 23:55:00
6:15 PM,29.7,27.9,93,29.90,2.0,NW,12.7,19.6,N/A,Snow,Light Snow,310,2013-02-28 00:15:00
6:35 PM,29.8,28.0,93,29.90,2.5,NW,15.0,-,N/A,Snow,Light Snow,310,2013-02-28 00:35:00
6:55 PM,29.8,28.2,94,29.91,2.0,NW,11.5,18.4,N/A,Snow,Light Snow,310,2013-02-28 00:55:00
7:15 PM,30.0,27.9,92,29.91,3.0,NW,13.8,-,N/A,Snow,Light Snow,310,2013-02-28 01:15:00
7:35 PM,30.0,27.5,90,29.91,5.0,NW,12.7,-,N/A,Snow,Light Snow,310,2013-02-28 01:35:00
7:55 PM,30.2,27.5,90,29.91,4.0,NW,11.5,-,N/A,Snow,Light Snow,310,2013-02-28 01:55:00
8:15 PM,30.2,27.3,89,29.92,4.0,NW,13.8,17.3,N/A,Snow,Light Snow,310,2013-02-28 02:15:00
8:35 PM,30.2,26.8,87,29.92,7.0,NW,16.1,23.0,N/A,Snow,Light Snow,320,2013-02-28 02:35:00
8:55 PM,30.2,26.6,86,29.92,7.0,NW,15.0,-,N/A,Snow,Light Snow,320,2013-02-28 02:55:00
9:15 PM,30.2,26.6,86,29.93,7.0,NW,17.3,24.2,N/A,Snow,Light Snow,320,2013-02-28 03:15:00
9:35 PM,30.2,26.6,86,29.93,7.0,NW,17.3,-,N/A,Snow,Light Snow,320,2013-02-28 03:35:00
9:55 PM,29.8,27.0,89,29.94,4.0,NW,16.1,24.2,N/A,Snow,Light Snow,320,2013-02-28 03:55:00
10:15 PM,29.7,27.1,90,29.94,4.0,NW,16.1,26.5,N/A,Snow,Light Snow,320,2013-02-28 04:15:00
10:35 PM,29.3,27.1,92,29.94,4.0,NW,19.6,26.5,N/A,Snow,Light Snow,320,2013-02-28 04:35:00
10:55 PM,28.9,27.0,92,29.94,2.0,NW,17.3,-,N/A,Snow,Light Snow,320,2013-02-28 04:55:00
11:15 PM,28.4,26.1,91,29.94,4.0,NW,19.6,26.5,N/A,Snow,Light Snow,320,2013-02-28 05:15:00
11:55 PM,27.3,25.2,92,29.95,2.5,NW,18.4,23.0,N/A,Snow,Light Snow,310,2013-02-28 05:55:00